Location: Newark
(42.1667°N, 14.5667°E)
Time: 00:22:45
(UTC+00:00)

Envisat - Pass Details

Date: 27 January 2020
Orbit: 764 x 766 km, 98.1° (Epoch: 27 February)

Event Time Altitude Azimuth Distance (km) Brightness Sun altitude
Rises 17:52:34 0° 200° (SSW) 3,219 6.6 -19.2°
Reaches altitude 10° 17:55:19 10° 215° (SW) 2,298 6.0 -19.7°
Maximum altitude 17:59:17 23° 267° (W) 1,594 5.5 -20.4°
Drops below altitude 10° 18:03:16 10° 319° (NW) 2,311 5.9 -21.2°
Sets 18:06:04 0° 334° (NNW) 3,242 6.5 -21.7°
